User: anonymous   Login
Location: Unspecified
(0.0000°N, 0.0000°E)
Time: 04:30:34
(UTC+02:00)
Language:

Cosmos 2219 Rocket - Orbit

View from above orbital plane
View from above orbital plane
View from above satellite
View from above satellite

Ground track
Ground track

The orbit data is extracted from the following two-line orbital elements,

1 22220U 92076B   17267.48993824 +.00000033 +00000-0 +40537-4 0  9991
2 22220 070.9997 210.2195 0011005 127.9287 352.3922 14.16418442284504
Epoch (UTC): 24 September 2017 11:45:30
Eccentricity: 0.0011005
inclination: 70.9997°
perigee height: 829 km
apogee height: 845 km
right ascension of ascending node: 210.2195°
argument of perigee: 127.9287°
revolutions per day: 14.16418442
mean anomaly at epoch: 352.3922°
orbit number at epoch: 28450

The dashed part of the orbit path shows where the satellite is in the earth's shadow,  

DLR